Theta_e
337 337 337 336 335 335 336 339 340 339 337 335 335 334 334 334 335 336 335 335 334 335 336 338 339 340 341 339 339 338 336 336 336 337 338 339 339 340 340 339 341 338 328 325 329 331 331 332 331 331 330 330 331 333 334 334 334 334 334 334 334 335 334 333 332 332 332 332 332 332 332 332 332 332 332 332 331 331 331 331 331 332 332 332 332
337 337 337 336 336 336 336 338 340 340 338 337 337 336 336 336 336 336 336 337 337 338 338 338 339 341 341 340 340 339 337 336 336 336 338 341 341 340 341 340 341 341 335 327 327 329 330 332 333 333 332 331 331 332 333 334 334 334 335 335 335 335 335 335 334 333 333 332 332 331 331 331 331 330 330 329 329 329 329 329 328 328 328 329 329
339 338 337 336 335 335 334 335 338 340 340 341 340 338 336 336 336 336 336 337 339 340 340 339 339 340 341 341 341 341 339 338 337 337 339 341 341 340 341 342 342 342 340 332 327 327 329 330 332 334 334 334 333 333 333 333 333 334 335 336 335 335 335 336 336 335 334 334 332 331 331 331 330 330 329 329 329 329 329 328 328 328 328 328 329
339 339 337 335 334 333 332 332 335 338 340 341 340 338 337 337 338 338 337 338 339 340 341 341 340 341 342 342 342 342 341 340 339 338 339 341 342 341 341 342 342 342 342 336 329 328 329 329 330 332 333 333 334 334 334 333 333 334 335 335 335 335 336 336 336 336 335 335 334 332 331 331 330 330 329 329 329 329 329 328 328 328 329 330 330
338 339 338 336 334 333 332 330 330 334 338 338 338 337 337 337 339 339 339 339 339 340 341 342 342 342 342 342 342 342 342 341 341 340 339 340 342 342 341 341 342 342 343 339 330 328 329 329 330 331 331 332 333 333 334 334 333 333 333 334 334 334 335 335 335 335 335 334 332 332 332 331 330 329 329 329 330 330 330 330 330 330 331 332 333
339 339 338 337 336 334 332 331 328 329 334 337 337 337 337 337 338 339 339 339 340 341 341 341 342 342 342 341 342 341 341 341 341 341 341 341 342 341 340 341 342 342 343 340 332 330 332 332 332 332 332 332 332 333 333 333 333 334 333 333 333 333 333 334 334 334 334 333 331 331 331 330 330 329 329 330 331 332 332 332 332 332 332 333 334
340 341 339 338 338 337 335 332 327 326 330 334 335 337 339 338 338 339 339 339 340 341 341 341 340 341 341 341 341 341 341 341 341 342 341 342 342 342 341 341 342 342 342 340 335 335 337 337 336 335 334 334 335 334 334 333 333 334 334 334 334 333 332 333 332 332 331 330 329 329 329 330 330 329 329 330 332 334 334 334 334 333 333 334 335
340 340 340 339 338 338 337 335 330 327 327 329 332 336 339 340 340 339 340 340 340 341 341 341 340 340 340 339 339 340 342 342 341 341 342 342 342 342 341 341 341 341 341 341 338 339 340 340 340 339 337 337 336 336 336 336 336 335 334 334 334 334 333 332 331 329 328 326 325 326 326 327 328 329 329 330 332 333 334 334 334 333 334 334 336
344 342 341 339 338 337 337 336 335 332 329 329 331 335 339 341 342 341 341 341 341 341 341 341 341 339 338 338 337 339 342 343 341 341 342 343 343 342 341 340 340 341 341 341 341 341 341 340 340 340 339 339 338 337 337 338 339 338 337 336 336 335 334 333 332 331 330 328 328 327 327 326 327 328 329 330 332 332 333 332 333 334 334 336 336
344 345 344 342 339 338 337 337 337 337 334 333 333 336 339 340 341 342 342 341 340 340 341 341 340 340 339 336 335 336 339 342 342 342 342 343 343 342 341 340 339 340 340 340 341 341 341 341 340 339 340 340 339 338 337 337 339 340 340 338 338 337 337 335 334 333 333 332 332 332 332 330 329 329 329 330 331 332 332 332 333 334 335 336 336
342 343 343 342 340 339 339 338 337 339 338 337 337 338 339 339 340 340 341 341 341 340 340 340 340 342 341 339 337 336 336 337 339 341 342 342 342 342 341 341 340 339 340 339 339 339 340 340 339 339 340 340 340 338 337 338 340 342 340 339 339 339 339 338 337 335 335 334 334 334 334 334 333 331 331 331 331 332 333 333 333 334 336 336 337
343 344 344 342 342 339 338 338 337 338 339 339 339 338 338 337 337 338 338 340 340 339 338 339 341 343 343 343 341 339 336 335 335 338 341 342 341 341 340 340 339 339 340 340 339 338 338 338 338 338 339 341 341 341 339 340 342 342 340 339 339 339 339 340 340 338 337 336 336 336 335 335 335 334 334 333 333 334 335 335 335 336 336 337 337
337 341 345 344 343 341 338 338 339 339 339 340 340 339 338 337 336 337 338 340 340 340 338 338 340 342 342 343 342 340 338 335 334 334 337 340 342 341 341 340 339 339 339 340 340 340 338 337 336 337 339 341 343 342 341 340 341 341 339 338 337 338 339 339 340 340 340 339 338 338 337 336 336 336 336 335 336 336 337 337 337 337 337 337 337
340 340 342 344 345 343 340 340 341 341 341 341 341 341 340 338 338 339 341 342 342 342 340 337 338 338 340 342 342 340 339 337 335 334 334 337 340 341 341 341 340 339 338 339 340 340 340 339 338 338 339 341 342 342 340 339 339 339 338 337 336 337 338 339 339 339 340 340 340 339 338 337 337 337 337 337 337 337 338 337 337 337 337 337 337
343 344 344 344 344 344 344 343 343 343 343 343 343 342 341 340 340 341 343 343 343 343 341 338 336 337 341 344 343 341 341 339 337 336 334 335 337 339 340 341 340 339 339 339 338 338 338 339 338 338 338 340 340 341 340 340 339 338 338 338 337 337 338 339 339 338 339 339 340 341 339 338 338 337 338 338 338 337 337 337 337 337 337 337 337
342 347 348 346 343 343 344 345 344 343 343 343 343 343 342 341 341 342 343 343 343 343 341 338 336 337 341 343 343 343 341 340 339 337 337 336 336 337 338 338 339 339 340 339 338 337 337 337 337 337 337 339 339 340 340 340 340 340 340 340 338 337 338 338 338 338 338 338 339 340 340 339 338 338 338 339 339 338 338 338 338 337 337 337 338
341 345 348 347 346 345 346 345 344 343 341 341 342 342 342 342 342 342 342 343 342 342 341 339 338 338 339 341 342 343 342 341 340 339 338 337 336 336 335 335 336 338 339 339 338 337 336 336 336 336 336 338 339 340 341 341 342 342 342 341 339 338 339 338 339 338 338 338 337 338 339 339 338 339 339 339 339 338 339 339 339 338 338 338 339
341 342 345 346 345 345 346 343 343 344 342 340 341 342 342 342 343 343 343 343 343 342 342 341 340 340 339 340 341 342 343 342 340 339 339 338 337 336 335 335 334 336 337 338 338 337 336 335 335 336 336 337 338 339 341 342 343 343 343 342 339 338 338 339 339 339 339 339 338 338 339 339 338 338 338 339 338 337 338 339 339 339 339 339 340
341 340 341 340 340 342 343 342 342 343 342 342 342 342 343 343 343 344 344 344 344 343 343 343 343 342 341 340 340 342 343 342 340 340 340 338 336 335 333 334 334 334 335 335 335 335 334 333 334 335 337 337 338 339 339 341 342 343 343 343 341 339 338 339 339 339 339 339 339 340 340 339 339 339 339 339 338 338 338 339 339 339 339 340 340
341 340 339 339 341 343 344 345 344 344 343 342 342 343 344 344 343 344 346 345 344 344 343 341 342 342 342 341 340 341 344 342 340 340 340 340 338 336 333 333 334 336 335 335 334 333 332 332 333 335 336 337 337 338 339 340 341 341 342 343 343 341 340 340 339 339 339 339 340 340 340 341 341 342 342 341 341 340 339 339 339 340 340 340 341
339 339 339 340 342 343 344 345 344 343 342 342 342 341 340 340 340 341 342 341 340 340 339 338 339 340 341 343 342 342 344 343 342 340 340 340 340 338 336 335 334 335 335 336 337 336 336 335 334 334 335 337 337 338 339 340 340 341 341 342 343 342 342 342 342 342 341 340 341 341 341 341 342 344 345 344 343 341 340 340 339 340 340 340 340
336 339 339 340 341 340 341 343 343 342 340 339 339 337 335 335 334 334 335 336 335 334 334 335 336 337 339 341 343 344 344 343 342 341 340 339 340 339 338 336 334 332 333 335 337 338 339 339 337 335 335 336 337 337 338 339 340 341 342 342 343 343 343 343 343 343 343 342 342 342 342 342 341 343 344 346 345 343 342 340 340 340 341 340 340
336 338 340 340 339 339 341 342 343 342 340 337 336 336 335 334 334 334 334 334 334 334 335 336 336 337 338 338 340 341 343 343 342 341 341 340 340 339 337 336 334 332 331 333 336 338 341 342 341 339 337 336 336 337 338 339 342 344 344 344 343 344 343 344 343 344 344 343 343 343 343 343 341 341 343 345 345 344 342 341 340 341 342 342 341
335 338 340 340 339 340 342 342 340 339 337 335 335 334 334 333 334 335 334 332 331 330 333 336 338 339 339 338 337 337 341 343 341 342 342 341 340 339 338 336 334 332 332 334 336 338 339 341 342 341 341 340 339 339 340 342 344 344 344 344 344 344 345 344 344 344 345 345 344 343 343 343 342 341 341 343 344 344 343 342 341 340 340 341 340
332 334 337 339 339 339 340 339 337 334 334 333 333 334 334 333 333 333 331 330 330 330 331 334 336 338 339 337 336 337 340 342 342 342 343 342 341 339 339 338 335 333 333 335 338 339 339 339 340 341 341 341 341 341 342 343 342 342 342 342 342 343 344 343 344 344 345 345 345 345 344 344 343 343 342 341 342 344 345 345 344 341 340 340 340
333 333 335 336 335 335 335 335 334 333 333 333 333 333 333 333 333 332 330 329 330 333 334 335 335 337 338 336 337 339 339 340 342 342 342 343 342 341 341 340 337 335 334 337 339 340 340 339 340 340 341 340 340 340 341 341 341 341 341 341 341 341 342 342 343 343 343 344 344 344 344 344 344 344 343 342 342 343 346 347 347 344 342 342 342
336 335 335 335 335 335 335 334 334 334 333 333 333 332 332 333 333 333 333 331 332 334 335 335 337 338 338 338 339 339 337 338 340 340 341 341 341 341 341 341 339 336 335 338 339 339 340 339 340 340 340 340 340 341 341 341 341 341 341 341 341 341 342 342 342 342 342 342 342 342 343 344 344 344 344 344 343 344 346 347 347 346 345 344 345
335 335 335 335 335 335 335 335 335 334 332 332 332 332 333 333 333 333 334 334 334 335 335 335 337 339 338 337 338 339 338 339 339 339 341 341 339 341 342 342 340 338 338 340 339 338 339 339 340 340 340 340 340 340 341 340 340 340 341 341 341 341 340 341 341 341 342 341 341 341 342 343 344 344 344 345 345 346 346 346 345 346 347 347 347
332 332 333 333 333 333 333 333 333 333 332 332 332 334 334 334 334 334 333 334 334 335 334 333 334 335 335 335 336 338 338 340 340 340 342 341 339 340 341 342 341 338 338 340 339 336 336 338 338 340 340 340 339 339 339 339 340 341 341 341 341 341 342 342 342 342 342 342 342 342 342 343 344 345 344 345 346 346 345 344 344 345 347 348 348
330 331 330 330 330 331 331 331 331 331 332 332 332 334 334 334 334 334 333 333 333 334 334 333 332 332 333 333 333 336 338 340 340 340 340 340 338 338 339 340 341 339 338 340 340 337 336 336 335 337 340 340 339 338 340 340 340 341 340 340 341 342 344 345 345 345 344 344 344 343 343 343 345 345 345 345 346 346 345 345 346 346 347 347 347
330 330 330 330 331 331 332 331 331 331 331 332 332 333 334 334 334 334 334 333 333 333 333 333 332 331 331 330 330 332 335 337 339 340 340 339 337 337 337 337 339 339 338 340 340 338 336 335 335 335 337 340 341 340 340 340 339 338 338 339 341 342 343 343 344 345 345 346 346 345 344 345 345 345 345 345 345 345 346 346 347 347 346 346 347
328 328 329 331 332 332 331 331 331 331 332 332 332 333 333 334 334 334 333 332 332 333 332 331 331 331 332 331 330 329 330 332 336 339 339 338 336 336 337 337 337 339 340 340 340 338 336 336 336 335 335 338 341 341 341 340 339 337 337 337 339 339 339 340 340 341 342 343 344 344 345 345 346 346 345 345 345 345 345 345 346 347 345 346 346
327 328 330 331 330 330 330 330 330 331 332 332 333 333 333 334 334 334 333 332 332 332 331 330 331 332 332 332 331 330 331 333 336 339 339 337 337 336 337 338 338 339 340 340 340 338 336 336 337 336 335 336 339 341 340 340 340 339 338 338 338 338 338 338 337 338 339 341 343 343 344 344 345 345 345 345 345 344 344 345 346 346 345 345 345
327 328 329 329 328 328 328 328 329 329 330 331 332 333 334 333 333 333 333 333 332 332 332 331 330 332 333 333 332 332 333 332 333 339 339 336 336 336 336 338 339 339 340 340 340 340 337 336 337 337 335 335 337 340 341 339 339 340 339 339 339 338 339 339 338 338 340 342 343 344 344 344 344 345 346 346 346 345 345 345 345 345 345 345 345
327 327 328 328 327 326 326 326 327 328 329 330 332 333 334 333 333 333 333 333 334 333 333 331 330 331 333 333 332 331 331 331 333 338 340 337 335 335 335 338 340 340 339 340 340 341 337 336 337 337 336 336 337 340 342 340 339 340 339 340 339 339 339 340 340 339 340 341 343 343 344 344 344 344 345 345 345 345 345 345 345 346 345 346 346
327 326 327 327 326 325 325 325 327 329 329 330 331 333 334 334 333 333 332 333 334 335 334 332 331 332 333 333 332 331 333 335 335 337 339 338 337 335 333 335 338 339 339 340 341 340 338 337 337 337 337 336 337 341 342 341 340 340 339 340 340 340 340 341 340 339 338 340 342 343 343 343 343 344 344 344 345 345 345 346 345 345 346 346 346
326 325 325 325 325 325 324 326 328 329 330 331 331 332 333 335 335 333 333 333 335 335 335 335 334 334 335 335 334 335 336 337 336 336 337 338 339 338 334 333 334 336 338 340 341 340 337 336 337 338 337 337 338 342 343 341 341 341 340 340 342 342 342 341 340 338 337 339 341 343 343 343 344 344 344 344 345 346 346 347 346 345 345 346 346
326 325 324 324 324 324 325 327 329 329 330 331 331 331 332 334 335 334 334 335 335 335 335 336 336 335 336 335 335 335 335 335 335 335 336 336 338 338 336 333 331 332 335 337 339 338 336 336 337 338 338 338 339 342 343 341 341 341 340 341 343 343 342 341 339 338 338 338 342 343 342 343 343 344 344 344 345 346 346 346 346 345 345 346 346
326 326 324 324 324 324 326 328 328 329 330 330 331 331 332 334 335 335 334 335 334 334 333 333 334 334 334 334 334 334 333 333 332 333 334 334 334 335 335 334 332 331 333 335 337 336 336 337 339 339 339 339 340 341 342 341 341 342 340 341 342 340 339 338 339 339 338 339 341 342 342 342 342 343 343 344 345 345 345 345 345 344 344 345 345
326 326 325 324 324 325 326 327 328 329 331 332 333 333 334 334 335 335 335 335 334 334 333 333 333 333 333 333 332 332 332 331 331 332 332 333 333 333 333 334 334 334 335 336 336 336 337 339 340 340 340 340 340 341 342 341 342 341 339 340 340 338 336 337 338 339 339 339 339 341 342 342 341 342 343 344 344 344 345 345 345 344 344 344 344
326 326 326 324 324 326 327 327 326 327 328 330 331 332 332 332 332 333 334 334 335 335 335 334 333 333 333 333 333 333 332 331 331 331 332 332 334 334 334 334 334 335 336 337 337 337 338 340 340 340 341 341 341 341 342 342 340 339 338 340 339 337 335 336 338 339 339 339 340 341 341 341 341 342 343 343 344 344 344 344 345 344 342 342 342
325 326 326 325 324 326 328 327 325 324 324 325 327 327 328 328 329 329 330 332 334 335 335 334 333 333 333 333 333 334 334 334 333 331 332 332 333 333 334 335 334 334 336 337 338 338 339 340 340 341 341 341 342 342 342 341 339 338 340 340 338 335 334 336 337 338 339 339 340 340 340 341 341 341 342 342 343 344 343 345 346 344 342 341 339
325 326 327 325 323 326 329 328 326 325 324 324 325 326 327 327 328 329 330 331 332 333 334 335 333 333 334 334 335 335 336 337 336 334 333 332 333 334 334 336 335 334 335 337 339 338 339 340 340 341 342 341 341 341 341 341 340 340 341 339 336 334 334 336 338 338 338 338 340 340 340 341 340 341 341 342 343 343 343 345 346 345 344 342 339
325 326 327 325 325 327 328 328 327 325 324 324 325 326 327 327 328 329 330 331 332 332 333 333 334 335 336 336 337 337 337 337 337 337 335 333 334 334 335 337 336 335 334 336 339 339 339 340 340 341 342 341 340 340 340 341 341 341 341 338 334 333 334 337 338 338 337 338 340 341 341 341 340 340 340 341 342 343 344 344 344 344 344 344 342
325 326 326 326 326 327 327 327 327 326 324 324 324 325 328 329 329 329 330 331 333 334 333 334 335 336 336 337 337 338 340 340 338 338 336 335 336 336 337 338 337 336 335 335 338 340 340 341 341 342 342 341 339 337 337 340 343 343 340 334 333 334 336 337 337 336 338 339 340 341 341 340 340 339 339 341 342 343 343 342 342 342 342 343 343
325 325 326 326 326 327 326 326 326 325 324 324 324 326 328 329 330 331 332 333 335 335 335 336 337 337 336 337 338 339 341 341 339 338 337 337 338 338 339 339 338 337 336 336 338 341 342 342 342 341 341 340 338 336 338 342 343 339 335 333 335 337 337 337 338 339 341 341 340 342 342 340 339 338 339 342 342 342 342 342 341 341 341 341 341
324 324 325 326 326 326 326 326 326 326 325 323 323 325 327 328 329 331 333 335 336 336 337 338 337 336 337 337 338 340 341 340 338 338 337 338 339 339 340 340 339 338 337 337 339 341 341 342 341 340 339 337 336 337 340 342 340 334 332 334 336 337 338 339 340 341 341 341 340 341 341 339 339 338 339 341 342 342 341 342 342 342 341 341 341
324 325 325 326 326 326 326 326 326 326 325 324 323 324 325 326 329 331 332 335 336 337 337 337 335 336 337 338 339 339 340 339 338 337 338 339 340 341 341 340 340 339 338 337 337 339 340 340 340 339 337 335 335 337 340 340 336 332 334 336 337 338 339 341 341 341 341 341 340 339 338 338 338 339 340 341 341 340 341 341 341 341 341 341 340
325 325 325 326 326 326 326 326 326 326 325 324 322 323 324 325 327 330 331 332 335 336 336 335 335 336 337 337 338 339 339 339 339 339 340 340 340 340 340 340 340 340 339 337 338 340 340 340 338 337 336 335 336 338 339 337 334 333 337 340 341 341 341 341 341 341 340 340 339 339 338 338 338 339 340 340 340 339 340 340 340 340 340 339 339
325 325 325 324 324 324 324 326 327 326 325 324 322 322 323 324 326 328 328 329 331 333 333 334 335 336 336 337 336 337 338 338 339 339 339 339 338 338 339 340 339 339 339 338 339 340 339 338 337 335 335 337 339 339 336 334 334 335 338 341 341 341 341 341 341 340 339 338 339 339 339 338 338 338 339 339 339 339 339 339 339 339 338 338 337
325 325 324 323 322 322 323 325 327 326 325 324 323 321 322 324 325 325 325 326 327 329 330 332 334 334 335 335 336 336 337 337 338 338 337 337 337 337 338 338 338 338 338 339 339 339 338 337 335 335 337 340 339 336 334 334 336 337 338 338 339 340 341 339 337 336 337 337 338 339 339 338 338 339 338 338 339 340 339 339 338 337 337 337 336
Wind_Speed
16 16 15 15 15 15 16 16 16 17 17 15 14 13 12 12 11 12 11 10 11 10 10 10 10 10 12 14 16 17 18 18 17 16 15 14 14 13 13 11 9 8 7 9 10 10 9 9 10 10 11 12 12 13 13 13 13 13 13 13 13 12 12 11 11 11 10 10 10 10 10 10 10 10 10 10 9 9 9 10 10 10 10 10 9
17 17 17 16 15 15 16 16 16 17 17 16 15 13 12 12 12 13 13 12 11 11 11 10 10 11 12 13 15 17 18 18 17 17 16 15 16 16 15 13 11 9 8 10 11 12 11 11 11 11 11 12 12 13 13 14 14 14 14 14 13 13 13 13 12 12 11 11 11 11 11 10 10 10 10 10 9 9 9 10 10 10 10 10 9
18 18 18 18 17 16 16 17 18 17 17 17 15 14 13 12 13 13 14 13 12 12 12 11 11 12 12 13 14 15 17 18 18 18 18 16 16 17 17 16 14 11 10 10 12 13 13 13 12 12 12 12 12 13 13 14 14 15 15 15 14 14 14 14 14 13 13 12 12 12 12 11 11 10 10 10 9 9 9 10 9 9 9 9 9
19 20 20 19 19 17 17 18 19 18 18 18 16 15 15 14 14 14 13 13 14 14 13 13 12 12 13 13 14 14 16 17 18 19 19 17 17 18 18 18 16 14 12 11 12 14 14 14 14 13 13 13 13 13 14 14 15 15 16 16 16 16 16 15 15 15 14 14 14 13 13 12 12 11 11 10 10 9 9 9 9 9 9 9 9
19 20 21 20 19 18 18 18 20 20 19 18 17 16 16 15 15 14 14 14 14 14 14 14 13 13 13 13 14 14 15 16 16 18 19 18 17 18 18 19 18 16 14 13 13 14 14 14 14 14 14 13 14 14 14 15 15 16 16 17 17 17 17 17 17 17 16 16 15 15 14 13 13 12 12 11 10 10 9 9 9 9 9 10 10
21 21 21 22 20 19 18 18 19 20 20 19 18 17 17 16 16 16 15 15 15 14 15 14 14 13 14 14 14 13 14 15 15 16 18 18 17 18 19 19 19 18 17 16 15 15 14 14 14 14 14 14 14 14 14 15 15 16 16 17 17 18 18 18 18 18 18 17 17 16 15 15 14 13 12 12 11 10 10 10 10 10 11 11 11
24 24 24 23 22 21 20 18 18 20 21 20 19 18 18 17 16 16 16 16 16 15 15 15 14 14 13 14 14 13 14 14 15 16 17 17 17 19 20 20 20 19 18 18 17 16 16 15 15 15 15 15 14 14 14 15 16 16 17 17 17 18 18 18 18 18 18 18 18 17 17 16 15 14 13 13 12 12 11 11 11 12 12 12 13
26 27 27 25 24 24 22 20 19 20 21 21 20 20 19 18 17 17 17 17 17 17 17 16 15 14 14 14 14 14 14 14 15 15 16 17 18 19 20 20 20 20 19 19 19 17 16 16 16 16 17 17 16 16 15 15 16 17 17 18 18 18 18 18 18 18 17 17 17 17 17 17 16 16 15 14 13 13 13 13 13 13 13 14 14
28 30 30 28 26 25 24 22 22 23 22 22 21 21 20 20 19 19 19 18 18 19 20 19 17 15 14 15 15 16 16 15 15 15 16 18 18 19 20 21 21 20 20 20 19 18 17 17 17 17 18 18 18 17 17 16 17 17 18 18 19 19 19 18 18 18 17 17 17 17 17 17 17 17 16 16 15 15 14 14 14 14 14 15 15
30 32 34 32 29 27 25 24 24 25 25 24 22 21 22 22 22 21 21 21 21 21 21 22 20 17 16 16 16 17 18 17 17 17 18 20 20 20 21 21 21 21 21 21 21 20 19 18 18 18 19 19 19 19 18 18 18 18 18 19 19 20 20 20 19 19 18 18 18 18 18 17 17 17 17 17 17 16 16 16 16 16 16 16 16
31 33 35 35 32 29 27 26 25 27 27 26 24 23 24 24 25 24 24 24 23 22 22 23 22 20 20 19 19 19 19 20 20 21 21 22 22 22 23 22 22 23 23 23 22 22 22 21 20 20 20 20 20 19 19 18 18 18 18 19 20 20 21 21 21 20 20 20 20 19 19 18 18 18 18 18 18 18 17 17 17 17 17 17 17
31 33 37 38 35 31 29 28 27 27 29 29 27 26 26 26 27 27 27 27 26 24 23 23 23 23 22 22 22 22 21 22 23 24 24 24 24 24 24 24 24 24 24 24 24 24 24 23 23 23 22 22 20 20 19 19 19 18 18 19 21 22 22 22 22 22 22 22 22 21 21 20 19 19 19 19 18 18 18 18 18 18 18 18 18
31 32 35 37 37 34 31 30 30 29 29 30 29 27 27 27 28 28 28 28 27 25 24 24 25 25 25 25 25 24 23 23 25 26 27 27 27 27 27 26 26 25 25 25 26 26 26 26 25 24 24 24 23 21 21 21 20 20 20 21 21 22 23 23 23 23 23 23 23 23 23 22 22 21 20 20 19 19 19 19 18 19 19 19 19
31 32 33 34 36 37 35 33 32 31 30 30 30 29 28 28 29 29 29 29 27 25 24 25 26 27 27 27 25 24 25 25 26 28 28 29 29 30 30 29 29 27 26 26 27 28 28 27 26 26 25 25 25 25 24 24 24 23 23 24 23 23 23 24 24 24 24 24 24 24 24 24 24 23 22 22 21 21 21 20 20 20 19 19 19
31 33 34 34 35 38 39 37 35 33 31 31 32 31 30 30 30 30 30 30 29 27 27 26 27 26 26 26 25 23 24 26 28 29 29 29 30 31 31 31 31 29 27 28 29 30 30 29 29 28 27 27 27 27 26 26 26 25 25 25 25 25 24 24 25 25 25 25 25 26 26 25 25 25 24 24 23 23 23 22 22 21 20 20 20
32 34 37 36 35 37 39 39 37 35 33 32 32 31 31 32 32 32 31 32 31 30 28 27 27 26 24 23 22 20 22 25 28 28 28 29 30 31 31 32 32 31 31 31 31 32 32 32 31 30 29 28 27 27 27 27 27 26 26 26 26 26 26 26 26 26 26 26 26 27 27 27 27 26 26 25 25 24 24 24 23 23 22 21 20
32 33 35 35 36 37 39 39 36 34 33 32 31 31 31 32 33 33 31 32 31 31 30 28 27 27 25 23 20 19 23 26 25 24 25 28 29 30 31 31 32 33 33 34 33 33 33 34 33 32 31 30 29 28 28 27 27 27 27 27 27 27 27 27 27 27 27 27 27 27 28 28 28 27 27 27 26 26 25 25 24 24 23 22 21
28 28 30 32 35 37 38 37 36 34 31 29 30 31 31 31 32 32 32 31 30 32 32 29 28 27 27 28 25 24 26 24 22 22 22 24 26 27 29 31 32 34 35 36 35 35 35 35 35 34 33 31 31 30 30 29 29 29 29 28 28 27 28 28 28 28 28 28 28 28 28 29 29 28 28 27 27 27 26 26 25 24 24 23 22
22 25 27 30 33 36 36 34 33 33 30 28 29 29 31 32 31 32 33 31 31 33 32 30 31 30 28 29 29 30 31 26 22 21 19 20 22 22 24 25 27 30 33 34 35 36 36 36 36 36 34 33 32 32 32 32 31 31 30 29 28 27 27 27 28 29 29 29 29 29 28 28 28 28 28 28 27 27 27 26 25 25 24 23 23
17 21 24 27 29 31 33 32 30 30 29 28 28 29 30 32 30 32 34 31 31 32 30 30 32 31 30 30 29 31 34 31 26 24 21 21 22 22 22 22 22 24 26 28 30 33 35 36 37 37 36 35 34 33 33 33 33 33 32 31 29 27 27 27 27 28 29 29 29 29 28 28 27 27 27 27 27 27 27 26 25 25 24 24 23
18 19 21 25 27 26 27 28 28 28 29 28 28 27 27 27 26 29 31 29 29 30 30 30 32 31 31 32 32 33 35 33 31 30 28 27 28 28 26 25 25 25 25 24 26 28 31 34 36 38 37 36 35 34 34 34 35 35 34 32 31 29 28 27 27 27 27 28 29 29 29 28 27 26 26 26 26 26 26 26 26 26 25 24 24
18 19 20 24 27 27 26 27 28 28 27 26 26 25 24 24 24 26 27 28 29 31 32 33 32 31 31 32 34 35 34 33 31 31 32 32 32 33 31 29 29 29 27 26 25 25 26 29 33 36 38 37 36 35 35 36 36 36 35 33 31 31 30 28 28 27 27 28 29 30 30 29 29 28 27 26 25 26 26 27 26 26 26 26 25
17 18 20 23 26 27 27 26 26 26 25 24 25 24 25 25 26 27 28 29 31 33 35 36 35 34 33 32 34 36 35 33 32 30 31 33 35 37 35 32 31 30 28 27 26 25 25 25 28 32 34 36 36 36 36 36 35 34 33 32 31 31 30 30 29 29 29 29 29 29 30 30 30 29 28 27 26 26 26 26 26 26 27 27 26
16 16 17 21 24 26 26 25 23 23 24 24 25 26 27 29 30 30 32 34 37 38 39 39 39 39 37 35 35 37 37 36 34 32 32 32 33 37 36 33 33 31 28 27 26 25 25 25 25 27 28 30 32 33 34 33 32 32 31 32 32 31 31 31 31 30 30 30 29 29 29 30 30 30 29 29 28 27 26 26 26 26 27 28 28
17 15 14 18 23 25 26 25 25 25 25 26 27 29 31 33 34 35 37 39 39 40 41 40 41 42 40 38 38 39 40 39 36 35 35 34 34 37 37 35 34 32 28 28 27 25 26 26 26 26 27 28 29 30 31 32 32 32 32 33 33 32 32 32 31 31 31 31 31 30 30 30 30 30 30 30 29 28 27 27 27 27 28 29 29
14 13 12 14 18 21 22 24 26 27 27 28 30 31 32 34 35 37 38 38 36 37 38 38 41 43 41 39 41 42 42 40 38 37 37 36 36 38 38 36 35 33 30 29 28 28 28 27 26 26 27 28 29 29 30 32 32 31 30 31 31 31 31 30 31 31 31 32 33 32 32 31 31 31 31 31 31 30 29 28 28 29 30 30 30
11 11 11 13 16 18 20 22 24 27 28 29 30 31 32 34 36 36 36 36 35 34 34 35 38 41 42 40 41 42 42 40 38 38 37 35 34 36 38 37 34 32 31 30 31 31 29 27 26 25 25 26 27 27 28 29 28 27 25 26 27 27 27 27 28 29 30 31 32 32 33 32 32 32 33 33 33 32 32 30 28 28 29 30 30
13 13 14 16 18 20 22 24 27 30 32 33 34 34 34 35 37 36 35 36 35 33 33 34 34 36 37 36 37 39 40 37 36 36 36 34 33 34 38 38 35 32 30 31 33 33 29 27 27 25 23 23 23 24 25 25 25 23 23 23 25 26 26 26 27 27 27 28 29 31 32 32 32 33 34 34 33 33 32 30 28 27 28 29 29
15 16 17 19 20 22 25 28 30 32 34 36 37 38 37 36 36 36 35 36 36 36 36 36 34 34 34 33 33 36 37 36 36 35 35 35 34 35 37 39 38 35 31 30 34 34 29 26 26 24 21 20 19 20 21 22 22 21 22 23 24 24 24 23 24 24 25 25 26 28 30 31 32 32 33 33 32 32 31 29 28 28 28 29 30
17 18 19 20 21 22 25 28 30 31 33 34 36 37 37 38 38 37 36 35 35 36 37 38 36 35 34 32 32 33 35 36 37 35 34 35 36 36 37 38 39 39 36 33 35 35 30 27 27 25 22 20 18 17 17 19 19 19 21 21 21 21 20 20 21 22 23 24 25 26 28 30 30 31 31 31 32 32 32 31 30 30 30 30 30
18 19 20 20 21 21 22 24 26 28 30 31 33 34 35 37 38 38 37 35 35 36 38 38 37 36 35 33 32 32 32 33 35 34 33 36 37 37 38 39 40 41 40 36 36 37 34 30 28 26 25 23 20 18 17 16 16 17 19 20 20 20 20 20 21 21 22 23 24 25 26 27 28 30 31 32 32 33 33 33 32 32 32 32 31
18 18 18 18 18 19 19 21 23 25 26 28 29 31 32 35 37 38 37 36 36 37 38 39 38 37 37 37 37 35 33 33 34 35 35 35 37 38 39 41 41 41 40 38 39 41 38 34 32 30 28 27 26 23 21 19 18 18 18 19 20 20 21 22 23 23 23 23 24 25 26 27 28 29 31 32 32 32 32 33 33 33 33 33 33
16 15 14 14 16 18 19 20 22 24 25 26 27 28 30 33 36 37 37 37 37 37 37 38 38 37 37 38 39 38 35 34 35 35 36 36 37 38 40 42 42 41 40 40 42 44 42 37 36 33 30 29 29 28 26 23 21 20 20 19 20 21 22 23 23 24 24 23 24 24 26 27 28 29 30 32 32 32 32 32 33 33 33 33 33
14 13 13 14 16 18 20 21 22 24 26 27 27 27 28 31 34 35 36 37 37 37 37 37 37 37 36 37 38 38 38 38 38 37 38 38 38 37 38 42 43 41 41 42 44 46 44 40 37 35 32 31 31 30 28 27 24 23 23 22 22 22 23 23 23 23 22 23 24 24 25 26 27 28 29 30 31 32 32 33 33 34 35 34 34
12 12 13 16 18 20 22 23 23 24 25 26 26 26 27 30 31 32 33 35 36 37 37 36 37 38 38 38 40 40 40 42 42 41 41 41 40 38 37 38 40 40 41 43 45 46 45 42 38 36 34 33 31 30 29 29 28 26 25 24 23 23 24 25 25 24 23 23 24 24 25 25 26 27 28 29 30 31 32 33 34 35 36 35 34
12 13 15 17 19 22 24 24 24 25 24 24 24 25 26 28 30 30 29 31 32 34 35 35 36 38 39 40 41 41 40 41 42 42 42 42 42 40 37 35 35 38 41 44 45 46 45 42 39 36 35 34 32 30 30 31 31 29 27 25 24 24 25 26 27 26 24 24 25 25 25 25 26 27 28 28 29 30 31 32 33 34 33 32 32
14 15 16 18 20 23 24 24 25 26 25 24 23 23 24 25 27 28 28 29 29 30 32 34 36 38 39 40 40 40 39 39 40 41 42 43 42 42 40 36 35 35 38 43 45 44 43 42 39 36 36 36 34 32 31 32 32 30 29 27 26 26 26 27 28 27 26 25 25 25 25 25 25 26 26 27 28 28 28 29 29 30 29 28 28
14 15 16 18 20 23 24 24 25 26 24 23 23 22 21 22 22 24 26 27 27 28 29 32 34 36 37 38 39 39 39 39 40 42 42 42 42 43 41 38 37 36 36 39 42 43 42 41 39 37 37 37 36 34 32 32 32 32 30 28 27 27 28 28 29 28 27 26 25 24 25 25 25 25 25 25 25 25 25 25 26 25 25 24 24
14 15 17 18 20 22 23 24 25 26 24 23 22 21 20 20 20 21 23 25 26 27 29 31 33 35 37 38 39 40 40 41 43 44 45 45 45 45 43 39 37 38 39 40 41 42 41 40 39 38 38 38 38 36 34 33 34 33 31 30 29 28 28 29 29 28 27 25 25 25 25 26 26 26 25 25 24 23 23 23 23 23 22 21 21
14 16 17 18 19 20 22 23 26 26 23 20 18 18 18 18 17 18 22 26 29 30 31 33 34 36 37 39 41 42 43 44 45 46 47 47 46 47 46 42 38 38 40 42 42 42 40 40 39 38 39 39 39 37 34 34 34 32 30 30 30 28 27 27 27 26 26 25 25 25 25 25 26 26 25 24 23 22 21 21 21 21 20 20 21
13 15 17 18 18 19 21 22 25 26 24 21 19 19 21 22 22 21 22 25 29 32 33 33 33 34 36 39 41 43 45 47 49 49 48 48 47 47 47 45 41 40 41 42 43 42 41 41 40 39 40 40 39 36 34 32 31 29 28 28 29 28 27 27 25 25 25 24 24 25 25 25 25 25 25 24 23 21 20 20 20 20 19 20 21
12 15 17 18 17 18 20 21 23 26 27 26 24 23 23 24 24 25 24 24 27 30 33 34 34 34 36 40 42 44 45 46 49 51 51 50 49 47 48 47 44 43 43 43 43 43 42 41 41 41 41 40 38 36 33 30 29 29 28 28 27 27 27 26 26 24 23 23 24 25 25 24 24 24 24 24 23 21 18 16 16 19 19 19 20
14 15 17 18 18 17 19 20 22 26 28 28 27 25 24 24 23 25 26 26 26 28 30 33 36 37 38 39 40 42 43 44 47 50 51 51 50 48 47 46 45 44 44 44 44 45 44 42 41 41 41 39 38 36 33 30 30 30 28 26 27 27 25 25 26 25 22 21 22 23 23 22 22 21 22 21 21 20 17 13 12 15 17 18 18
15 16 17 17 17 17 19 20 22 25 26 27 27 26 26 26 25 24 26 27 27 28 29 30 34 36 36 36 37 40 42 42 44 47 49 50 49 47 46 45 44 43 43 43 44 45 45 43 42 42 41 39 37 35 33 31 31 29 26 26 26 26 25 25 25 24 21 19 19 20 20 19 18 19 19 19 20 20 18 15 13 13 14 15 17
16 17 16 15 15 16 18 20 23 24 25 26 27 27 27 29 28 25 25 26 27 28 29 29 30 30 31 33 35 37 38 39 41 44 45 46 45 44 43 43 43 42 41 41 40 40 41 42 41 41 40 39 38 36 32 30 29 26 25 25 25 23 24 24 24 22 20 19 19 19 18 17 16 17 18 17 18 19 18 18 16 14 14 15 15
16 16 16 14 14 14 18 22 24 25 25 26 26 27 28 31 33 29 24 22 23 24 25 26 26 27 28 31 32 33 33 35 37 40 41 42 43 42 42 43 43 41 40 38 36 36 38 39 38 38 37 38 38 35 30 27 25 24 23 23 22 21 21 21 20 19 19 18 17 17 17 15 14 16 16 15 16 17 17 17 17 16 16 16 16
15 17 16 14 13 15 19 23 25 25 26 26 26 27 28 31 34 33 26 21 20 20 20 21 23 23 23 25 27 28 30 32 35 37 38 40 41 41 42 43 42 40 38 37 35 35 36 37 36 36 36 35 35 32 28 25 23 22 23 23 21 21 21 20 19 19 19 18 15 14 15 14 13 14 14 14 16 16 16 16 16 16 16 16 17
15 17 16 14 14 16 20 24 24 25 26 25 25 27 28 31 34 32 24 16 13 13 15 16 17 17 16 18 22 25 26 29 32 34 36 39 42 43 43 42 42 42 39 36 35 34 34 35 35 35 34 33 32 30 27 25 23 23 24 24 23 22 21 20 20 20 19 17 13 13 13 12 12 13 12 13 15 15 15 15 16 16 17 17 17
14 16 16 15 14 15 19 22 22 23 24 24 24 26 28 29 32 32 25 14 7 8 13 14 13 12 10 11 13 19 22 23 26 30 33 35 36 36 38 39 40 40 39 36 34 34 34 34 34 33 32 31 29 27 25 24 23 22 22 22 22 22 20 20 20 19 18 16 13 13 13 12 12 11 11 13 14 14 14 14 14 15 15 16 16
13 14 17 18 17 16 17 20 19 20 22 23 23 26 27 28 30 33 31 22 13 8 7 8 8 8 5 5 6 11 15 15 17 22 25 26 24 24 28 31 33 34 35 35 34 35 35 34 33 32 31 28 25 24 24 23 22 22 21 19 19 19 19 19 18 15 15 15 14 14 13 12 12 12 12 13 13 13 13 12 12 13 13 13 14
11 14 17 19 18 16 16 17 16 17 21 23 23 24 26 27 28 29 31 30 25 21 19 14 9 6 5 5 4 3 9 11 12 14 16 18 18 20 23 26 28 31 33 34 35 36 36 35 34 32 30 27 25 23 22 22 23 23 21 19 17 17 18 17 15 13 13 14 14 15 14 12 12 13 13 13 12 12 13 12 11 11 11 11 11
Wind_Direction
249 247 245 245 246 246 248 245 241 240 241 241 241 241 243 246 252 256 253 243 239 238 237 236 237 238 232 227 225 224 225 227 228 232 237 240 241 234 225 220 218 222 219 208 206 211 212 207 202 204 211 213 214 216 218 219 222 224 226 228 230 231 232 232 230 230 230 232 234 237 239 238 244 249 253 258 260 265 268 271 272 271 269 267 267
252 250 248 247 247 247 251 250 246 242 242 245 246 248 251 250 252 254 253 248 242 240 241 239 239 241 237 231 229 230 231 231 231 233 238 243 243 238 232 228 220 218 225 219 213 216 220 219 214 212 216 220 221 222 223 225 228 229 232 234 236 236 237 238 237 236 235 235 236 239 243 245 250 254 257 261 265 270 273 276 277 276 274 270 270
254 251 251 251 249 248 250 253 251 244 241 245 249 256 258 253 251 251 250 249 247 244 242 239 239 241 238 232 230 233 236 237 237 236 240 245 245 241 236 232 225 219 223 224 220 219 223 225 224 223 225 228 230 230 231 232 234 235 236 238 240 241 242 243 244 244 243 243 243 244 248 252 257 260 262 264 267 271 275 279 281 281 278 276 277
257 254 252 252 252 252 251 254 254 249 247 249 253 260 260 254 251 250 249 248 247 245 243 238 237 239 234 231 232 235 238 240 241 240 244 248 249 244 236 232 227 222 222 226 225 222 224 227 228 230 232 234 236 238 238 239 241 241 241 243 244 244 245 247 249 250 250 250 251 251 252 256 260 264 266 269 270 272 274 278 281 281 279 279 282
258 259 257 255 253 254 253 254 256 253 252 253 255 257 257 253 253 253 253 252 249 247 245 241 236 237 235 234 238 240 241 243 242 241 243 247 249 244 236 234 230 224 223 224 226 223 223 226 229 232 233 236 239 241 242 242 244 246 247 248 249 249 248 249 251 252 253 254 255 255 256 257 259 262 266 269 271 272 272 275 277 277 279 280 283
258 261 262 259 256 255 255 255 257 256 254 253 254 255 253 250 252 257 258 257 255 251 250 247 240 238 236 237 242 245 243 243 243 241 241 243 247 242 235 235 231 227 224 222 222 223 223 226 228 232 234 235 238 242 244 244 245 247 249 250 252 253 252 251 251 252 254 255 256 256 256 256 257 259 262 265 267 269 270 271 273 275 277 279 281
260 260 262 262 260 258 258 257 256 255 253 253 255 256 253 249 249 253 258 259 258 255 254 253 246 241 239 241 244 246 242 241 242 243 241 240 243 241 234 232 229 228 226 223 222 222 225 228 229 232 235 237 238 241 244 245 247 248 250 250 252 255 255 254 254 254 255 256 257 257 256 255 254 255 257 259 262 265 268 270 273 274 276 277 280
258 258 258 260 262 260 260 258 256 255 254 254 255 255 256 254 251 250 254 258 261 260 258 256 252 247 246 247 249 247 242 241 244 245 241 236 238 237 231 229 229 229 227 225 225 225 228 232 233 234 236 239 240 241 244 245 247 249 251 252 253 255 257 258 257 257 258 258 258 258 258 256 254 254 254 255 258 261 265 268 271 273 275 276 278
260 257 256 256 259 261 261 259 256 255 255 254 255 256 257 258 257 254 253 257 262 263 260 257 253 248 247 250 253 251 244 243 246 246 237 231 232 233 231 231 232 230 228 226 226 227 231 235 238 239 239 241 242 243 245 247 248 249 251 252 253 254 256 258 259 258 258 257 258 258 259 258 255 254 254 255 257 260 262 264 267 268 271 273 276
264 261 258 256 258 259 259 260 258 257 256 254 254 255 256 258 259 258 255 256 260 263 262 261 258 254 251 250 252 252 247 245 247 246 237 230 230 230 230 234 235 234 232 230 228 228 233 237 241 243 242 243 244 245 247 250 252 251 251 252 253 254 255 257 258 259 259 258 258 258 258 259 257 255 254 255 257 259 261 262 263 264 267 270 274
264 262 260 258 258 258 258 259 259 258 256 252 250 251 252 255 257 258 257 255 258 262 263 264 262 257 254 252 251 252 248 246 247 246 241 236 235 233 231 232 235 236 237 236 234 233 235 237 241 244 245 245 246 247 248 251 253 254 253 253 254 255 255 256 258 259 260 260 260 260 260 260 259 257 256 256 257 258 260 261 261 263 265 269 272
262 259 259 259 258 257 256 257 258 258 256 251 248 248 250 252 256 258 258 257 257 259 261 262 262 259 257 255 253 253 250 247 245 244 243 241 239 237 236 236 236 236 238 239 240 241 241 240 241 245 247 247 246 247 250 252 254 255 255 256 257 257 257 257 258 260 261 261 261 261 262 262 261 260 259 259 259 259 261 262 263 265 267 269 272
264 258 255 258 259 255 252 252 254 255 255 253 252 252 252 253 255 257 258 258 258 258 258 258 258 258 257 256 255 254 253 250 247 244 243 243 242 240 240 240 238 238 240 242 244 246 247 246 245 246 247 248 246 248 253 255 255 256 258 260 261 260 260 259 259 260 261 262 263 262 262 262 262 262 262 262 261 262 262 264 266 267 269 271 274
266 260 255 255 258 255 249 248 250 252 254 255 255 254 254 254 253 253 255 256 257 258 257 254 253 256 258 259 259 254 252 252 250 247 244 243 243 242 242 241 240 240 242 245 247 249 250 250 249 248 248 248 248 251 255 257 257 258 260 262 262 261 261 260 260 260 260 261 263 264 264 263 263 263 264 264 264 264 265 266 267 269 270 272 274
272 263 256 254 255 254 249 247 249 251 252 254 255 256 256 254 251 251 254 256 258 258 257 253 251 254 256 258 260 257 254 253 250 247 244 243 243 243 243 242 242 243 244 246 248 250 251 251 250 249 249 249 251 254 256 257 259 260 261 261 261 261 261 261 261 262 262 261 262 263 264 265 263 263 264 265 266 267 267 268 269 269 270 272 274
274 264 256 253 252 250 248 246 247 250 253 254 255 257 257 254 251 253 255 256 257 257 257 254 251 249 248 250 253 253 253 252 251 249 246 244 244 244 245 245 245 245 244 246 248 250 251 252 252 252 250 250 252 254 257 259 260 261 261 260 259 259 260 259 260 262 263 263 263 262 263 265 265 264 264 265 267 268 269 269 269 269 269 270 272
269 264 258 255 251 245 243 243 245 249 253 255 256 259 260 256 253 255 257 257 257 258 258 256 254 251 247 246 244 241 249 255 255 254 250 245 244 246 247 248 248 246 246 246 247 249 250 251 252 253 252 251 253 255 257 259 261 262 262 261 258 257 258 258 259 260 261 262 262 262 263 265 265 266 266 266 268 269 270 270 269 268 268 268 269
264 257 253 253 252 249 245 244 246 248 250 254 257 259 259 256 254 256 257 256 255 257 259 260 259 257 254 252 250 249 255 258 256 256 255 249 246 246 248 250 250 249 248 248 248 249 250 251 251 252 252 252 254 256 258 259 260 261 262 263 261 258 256 257 258 258 259 260 260 261 262 264 266 267 268 268 269 270 269 269 268 267 267 267 267
265 250 249 250 251 253 250 247 249 249 249 253 256 256 256 257 258 258 257 255 253 253 258 263 262 260 260 258 257 256 254 251 251 256 260 256 249 245 247 249 249 249 249 250 250 250 251 251 251 251 251 252 254 256 257 258 259 261 261 262 262 260 257 257 258 258 259 259 259 260 261 263 264 266 269 270 270 270 268 267 266 266 266 266 267
278 261 257 252 249 252 251 251 253 253 252 251 252 252 255 258 259 258 258 257 255 255 260 265 264 264 265 264 263 259 253 250 248 249 253 257 254 248 245 245 246 248 249 250 251 252 252 251 251 250 250 251 253 254 256 257 259 260 260 259 260 260 259 258 258 258 259 259 259 259 260 260 261 263 267 270 270 269 267 266 265 265 265 265 265
285 275 264 252 247 249 252 254 255 253 251 250 249 247 251 257 259 260 261 260 260 261 262 263 264 266 268 268 266 261 257 256 250 245 247 252 255 255 251 250 251 250 251 253 254 254 254 253 252 250 249 250 251 252 254 256 258 260 260 259 258 258 259 260 259 257 256 257 257 258 258 258 258 259 262 266 268 268 267 266 265 264 264 264 264
283 281 269 252 245 245 246 248 247 244 242 245 246 243 245 253 258 262 265 266 266 267 266 264 262 263 264 267 266 262 260 259 253 247 248 249 251 255 256 256 257 255 255 258 259 259 258 258 255 251 249 249 250 252 254 256 258 260 260 260 259 258 258 260 261 259 258 258 258 259 260 259 258 258 259 260 263 265 266 266 266 265 263 262 263
278 280 273 252 243 245 246 246 245 242 240 243 245 244 247 254 259 263 265 268 270 272 271 267 263 261 261 262 264 266 264 262 258 252 252 252 250 253 257 258 261 262 260 262 265 262 260 259 258 254 250 250 251 252 253 256 258 261 262 262 261 258 257 259 261 262 262 262 262 262 261 261 259 258 257 258 260 263 264 266 267 266 263 261 261
273 277 272 253 244 246 248 247 243 240 241 245 247 251 256 258 259 262 265 268 271 271 270 267 264 261 260 261 264 267 267 265 263 257 258 260 256 255 259 261 262 264 264 266 268 264 260 259 258 255 253 251 251 252 253 255 258 261 262 262 261 259 258 259 261 262 264 264 263 262 262 262 260 258 257 256 257 259 262 265 267 267 264 262 261
279 276 268 252 246 247 248 248 246 246 250 254 257 260 262 261 260 262 265 267 268 268 268 267 265 262 261 263 265 265 265 266 263 258 258 262 259 255 256 259 261 263 265 266 267 265 261 258 258 258 256 254 253 253 253 254 257 259 261 261 260 259 259 260 261 262 263 263 263 262 261 261 260 259 257 256 255 256 258 262 266 268 266 263 262
289 282 266 251 247 246 246 247 250 254 257 260 261 261 260 260 263 265 265 264 264 266 268 268 265 261 260 264 264 262 264 265 262 259 259 261 259 253 250 253 258 260 262 265 266 265 261 258 259 259 258 256 255 255 254 255 257 259 261 262 261 260 260 260 261 261 261 260 260 259 259 259 258 258 257 255 253 252 254 257 262 267 267 265 264
284 280 268 258 254 251 250 250 252 255 257 259 259 258 258 259 263 266 266 264 263 265 269 271 268 262 259 262 262 260 261 263 262 262 260 259 260 255 247 248 252 256 259 262 264 264 261 261 261 258 257 256 256 257 257 257 258 259 260 260 260 259 259 259 259 259 259 258 257 257 257 257 257 256 256 255 254 253 253 255 259 264 266 266 265
282 278 276 273 270 265 262 260 258 257 258 260 261 260 260 261 262 263 263 263 263 265 268 272 270 262 258 259 260 258 259 260 260 260 257 255 258 255 247 245 247 250 255 260 262 261 261 263 262 260 259 259 258 259 259 258 256 255 256 256 257 257 256 257 257 257 258 258 258 257 256 255 256 256 256 256 257 255 252 251 254 258 261 264 266
291 287 283 281 278 274 271 270 268 266 265 265 266 265 264 263 261 260 260 260 263 265 267 268 266 261 257 258 260 258 256 257 256 255 253 251 253 252 248 245 245 246 248 254 259 260 261 264 264 262 262 265 267 266 262 259 256 253 254 253 253 254 254 256 257 257 257 258 259 258 256 255 255 257 258 258 257 253 249 250 254 256 258 260 263
291 289 287 284 282 278 275 274 273 273 272 270 270 269 267 264 260 259 259 260 263 265 266 265 264 262 260 258 260 259 255 254 254 252 252 250 249 248 246 245 245 245 245 248 257 261 262 263 265 264 266 271 277 276 264 257 255 253 253 252 250 252 254 255 256 257 257 258 259 259 257 255 256 257 259 258 256 252 250 253 256 257 259 259 260
291 292 292 291 290 288 285 281 279 277 276 273 271 269 266 263 261 259 258 260 262 263 264 264 263 262 259 256 259 260 257 256 255 252 251 250 247 246 245 245 244 244 243 245 253 259 260 261 263 265 269 271 275 278 269 257 255 255 255 254 254 258 260 260 259 259 259 259 259 259 258 258 258 258 258 258 256 254 253 254 255 257 258 259 258
300 299 299 300 300 300 299 294 288 284 281 278 273 270 265 261 259 258 257 258 260 261 262 262 261 260 258 256 258 260 261 262 260 254 251 250 248 246 245 244 243 243 241 240 246 254 258 259 262 265 269 269 270 273 271 263 260 262 262 263 263 264 265 265 265 264 263 261 260 259 260 260 261 260 260 259 258 256 255 254 255 255 256 257 257
314 310 309 311 313 312 310 305 298 292 289 285 279 275 269 263 259 256 255 256 257 258 260 260 259 258 258 257 256 258 262 267 265 256 251 252 251 248 246 243 242 241 239 237 242 250 255 257 260 263 265 267 267 268 269 265 262 264 268 270 270 267 265 267 268 265 263 263 263 263 263 261 261 260 260 259 258 258 257 257 256 255 256 257 257
321 319 322 325 325 322 319 315 309 300 294 290 285 280 274 268 263 259 255 254 255 257 258 258 257 257 259 259 258 260 265 269 267 256 250 252 254 253 249 242 239 240 240 239 241 246 252 255 257 260 262 264 264 264 265 264 262 262 265 268 270 268 266 267 267 265 264 265 266 266 265 263 261 261 261 260 260 259 259 259 258 256 256 257 256
324 327 332 331 330 330 327 323 318 310 302 294 289 286 280 272 266 262 257 255 256 257 257 257 256 256 259 259 260 263 265 266 265 256 248 251 254 255 252 241 235 238 240 241 242 243 248 252 255 258 260 263 263 262 264 264 262 261 262 265 267 267 267 268 268 267 267 268 268 266 265 264 263 263 263 263 261 260 260 259 259 258 257 255 254
334 334 333 332 333 333 331 329 326 320 311 300 293 292 289 278 265 260 259 257 256 256 256 255 255 256 258 259 260 262 261 260 260 253 246 248 253 254 252 244 237 238 240 241 241 241 245 250 254 256 258 260 261 261 264 264 261 261 264 265 266 266 267 269 269 268 267 268 267 266 265 265 265 265 265 265 264 263 263 262 262 261 259 255 253
341 337 334 334 334 332 331 333 330 326 319 308 300 297 297 287 269 259 258 257 256 256 254 255 255 256 258 259 258 258 255 253 254 249 243 246 251 252 251 248 243 242 241 239 239 240 243 248 252 254 256 259 260 260 262 263 262 262 264 266 267 267 268 268 268 269 268 267 266 266 266 266 266 265 265 265 266 267 266 266 265 264 261 256 253
339 337 335 336 333 331 333 335 332 328 322 314 307 303 302 296 279 265 260 258 258 257 255 254 255 256 257 257 256 254 251 249 249 247 244 246 249 250 250 248 245 245 245 242 240 240 243 247 251 253 255 258 258 258 260 263 263 263 263 265 266 267 269 269 269 269 268 266 265 266 266 266 266 265 264 265 266 268 268 267 266 265 260 255 251
338 340 339 335 331 331 334 336 334 330 324 317 314 311 307 301 286 272 265 263 263 262 261 259 258 258 258 257 256 254 251 250 248 247 247 248 248 249 249 248 245 244 245 244 241 240 243 246 249 252 254 256 257 258 260 262 263 261 260 263 266 269 274 274 272 270 266 264 265 266 265 265 265 264 264 263 264 267 268 265 262 260 255 249 247
332 342 343 337 331 332 338 339 337 334 329 324 319 313 309 308 297 278 266 263 263 263 263 262 260 260 259 258 257 255 253 251 250 249 248 248 248 249 248 246 244 243 243 242 241 240 242 246 249 251 253 255 257 258 258 260 260 257 255 261 268 275 278 277 272 267 263 262 263 264 263 261 261 262 262 261 262 265 266 262 257 254 249 244 243
332 343 346 340 333 334 339 341 341 341 339 335 326 316 312 313 308 295 279 268 266 266 264 261 258 258 259 258 256 254 252 251 251 250 249 248 248 248 248 245 242 241 242 241 239 240 242 245 248 250 252 255 256 255 255 255 253 251 254 261 270 277 280 276 269 262 261 263 264 262 261 259 260 261 261 261 261 264 268 266 253 245 243 242 243
342 344 344 340 336 335 338 339 342 343 342 339 334 326 319 312 306 301 295 284 276 272 266 260 257 260 262 260 257 253 251 250 249 248 247 247 247 247 248 247 242 239 240 239 238 239 241 243 246 248 251 253 252 251 252 251 248 249 255 263 271 277 277 273 267 261 260 263 265 264 262 260 260 260 260 261 261 261 269 270 249 237 240 243 243
347 343 341 340 341 340 338 338 341 342 341 340 339 334 328 320 310 303 299 291 282 276 269 261 260 264 265 263 259 255 251 249 247 245 244 244 245 245 246 247 244 240 239 238 237 237 239 241 244 247 249 250 248 249 253 253 250 251 255 264 272 274 271 268 265 262 260 263 265 265 263 260 258 258 257 258 257 255 259 260 244 236 240 243 242
344 341 339 342 347 349 344 340 340 339 337 339 342 340 336 330 319 306 299 294 285 276 270 266 266 267 266 264 261 257 253 249 244 242 241 241 242 243 243 243 242 240 238 238 237 237 238 239 242 245 248 248 246 249 255 255 252 252 257 265 269 269 267 264 261 261 263 264 264 263 261 255 253 254 254 253 251 248 247 246 243 241 242 243 242
336 337 337 340 347 351 349 345 342 339 338 341 346 345 341 338 331 316 302 295 288 279 273 272 272 270 267 266 263 256 251 247 241 237 238 240 241 240 239 239 239 236 234 234 237 239 240 240 243 247 248 246 247 252 257 257 254 254 259 264 265 264 262 259 258 262 265 263 263 263 258 251 249 254 254 248 243 241 241 242 244 246 245 243 242
333 336 335 335 339 344 344 343 344 343 340 343 348 348 347 345 341 331 314 297 286 280 276 274 275 273 270 266 261 253 247 243 237 232 234 237 237 235 233 234 234 232 229 230 232 237 239 241 245 248 248 248 251 254 256 255 254 256 259 261 261 259 256 256 259 261 258 256 260 261 254 247 247 251 248 238 233 234 237 240 244 246 245 242 240
334 336 336 332 329 331 334 337 342 344 342 344 349 351 351 350 347 341 328 306 289 280 276 278 281 279 274 266 255 247 243 240 235 231 230 231 230 229 228 228 229 228 225 225 227 231 234 238 241 244 246 248 250 251 251 250 252 255 257 257 255 253 252 254 255 251 248 248 248 248 249 245 242 245 239 226 227 233 236 238 241 243 242 241 240
335 338 341 337 327 325 329 334 339 343 344 347 352 355 356 354 353 352 342 320 300 286 279 284 289 289 285 274 255 242 239 237 232 228 226 226 226 225 223 224 226 225 221 220 224 227 230 234 238 241 244 246 248 249 247 245 247 251 253 254 252 249 247 249 248 243 243 242 237 238 246 245 241 242 233 220 224 231 233 235 237 238 239 240 241
338 342 346 344 338 332 331 333 338 345 348 350 355 1 2 359 1 5 2 358 345 308 297 295 293 290 297 295 264 241 237 236 230 223 220 221 224 223 221 221 222 222 219 218 222 225 227 231 235 240 244 246 246 242 237 237 242 246 248 249 247 241 238 240 241 239 238 237 234 237 242 243 240 236 223 215 219 223 225 229 230 231 235 238 240
339 343 346 345 344 341 338 336 340 348 352 353 357 4 4 3 9 12 11 18 38 34 353 326 294 271 274 306 279 244 236 233 227 221 217 216 218 219 219 217 214 215 217 219 220 223 225 228 232 238 241 238 232 227 228 234 238 239 240 242 238 234 233 234 233 231 233 235 234 233 237 236 231 223 214 209 212 214 215 218 220 223 229 234 237
336 340 342 342 341 341 343 344 347 355 359 359 1 3 5 6 11 12 11 17 31 48 57 58 54 57 57 36 15 264 233 220 213 215 217 217 218 221 224 222 218 218 220 221 222 223 224 227 231 233 230 222 218 221 225 229 231 233 236 236 231 229 228 223 217 219 229 233 231 229 231 229 221 218 215 208 207 209 209 210 213 217 221 226 231